When you browse on this site, cookies collect data to enhance your experience and personalize the content and advertising you see.
Visit our Privacy Policy to learn more. By continuing to use the site, you agree to this use of cookies and data.
  • In Switzerland
  • List of Countries
  • For 7 days
  • Water Temperature
  • Weather Map
  • Weather Widgets
  • user-avatar
    Login

    Hourly Weather Parakou

    Today, 31 May, Sunday

    Time Temperature Precipitation Wind Pressure Humidity
    00:00 +26°C° 0 mm 3 mps 728 mmHg 89%
    01:00 +25°C° 0.5 mm 3 mps 728 mmHg 91%
    02:00 +25°C° 0.5 mm 3 mps 728 mmHg 93%
    03:00 +24°C° 0.5 mm 3 mps 728 mmHg 94%
    04:00 +24°C° 0.4 mm 3 mps 728 mmHg 94%
    05:00 +24°C° 0.4 mm 2 mps 728 mmHg 94%
    06:00 +24°C° 0.4 mm 2 mps 728 mmHg 94%
    07:00 +26°C° 0 mm 2 mps 728 mmHg 86%
    08:00 +28°C° 0 mm 2 mps 728 mmHg 78%
    09:00 +29°C° 0 mm 2 mps 729 mmHg 69%
    10:00 +31°C° 0 mm 2 mps 728 mmHg 61%
    11:00 +34°C° 0 mm 2 mps 728 mmHg 54%
    12:00 +36°C° 0 mm 2 mps 728 mmHg 46%
    13:00 +36°C° 0 mm 2 mps 728 mmHg 44%
    14:00 +37°C° 0 mm 2 mps 727 mmHg 42%
    15:00 +37°C° 0 mm 1 mps 726 mmHg 40%
    16:00 +35°C° 0 mm 1 mps 726 mmHg 45%
    17:00 +34°C° 0 mm 1 mps 726 mmHg 50%
    18:00 +32°C° 0 mm 1 mps 726 mmHg 55%
    19:00 +31°C° 0.2 mm 1 mps 727 mmHg 60%
    20:00 +30°C° 0.2 mm 1 mps 728 mmHg 66%
    21:00 +28°C° 0.2 mm 1 mps 728 mmHg 72%
    22:00 +28°C° 0.2 mm 2 mps 728 mmHg 76%
    23:00 +27°C° 0.2 mm 2 mps 728 mmHg 80%

    Tomorrow, 1 June, Monday

    Time Temperature Precipitation Wind Pressure Humidity
    00:00 +27°C° 0.2 mm 2 mps 729 mmHg 84%
    01:00 +26°C° 0.1 mm 2 mps 728 mmHg 87%
    02:00 +26°C° 0.1 mm 2 mps 728 mmHg 90%
    03:00 +25°C° 0.1 mm 2 mps 728 mmHg 93%
    04:00 +25°C° 0 mm 2 mps 728 mmHg 93%
    05:00 +25°C° 0 mm 2 mps 728 mmHg 93%
    06:00 +25°C° 0 mm 2 mps 728 mmHg 93%
    07:00 +27°C° 0 mm 2 mps 729 mmHg 86%
    08:00 +28°C° 0 mm 3 mps 729 mmHg 80%
    09:00 +29°C° 0 mm 3 mps 729 mmHg 73%
    10:00 +33°C° 0 mm 3 mps 729 mmHg 64%
    11:00 +35°C° 0 mm 3 mps 729 mmHg 56%
    12:00 +37°C° 0 mm 2 mps 728 mmHg 47%
    13:00 +38°C° 0 mm 2 mps 728 mmHg 44%
    14:00 +38°C° 0 mm 2 mps 727 mmHg 42%
    15:00 +39°C° 0 mm 1 mps 726 mmHg 39%
    16:00 +36°C° 0.2 mm 1 mps 726 mmHg 46%
    17:00 +35°C° 0.2 mm 2 mps 726 mmHg 53%
    18:00 +32°C° 0.2 mm 2 mps 726 mmHg 60%
    19:00 +30°C° 0.7 mm 2 mps 726 mmHg 64%
    20:00 +29°C° 0.7 mm 2 mps 727 mmHg 69%
    21:00 +27°C° 0.7 mm 2 mps 728 mmHg 73%
    22:00 +27°C° 0.9 mm 2 mps 728 mmHg 79%
    23:00 +26°C° 0.9 mm 2 mps 728 mmHg 85%

    Day after tomorrow, 2 June, Tuesday

    Time Temperature Precipitation Wind Pressure Humidity
    00:00 +26°C° 0.9 mm 2 mps 728 mmHg 91%
    01:00 +26°C° 0.3 mm 2 mps 728 mmHg 92%
    02:00 +26°C° 0.3 mm 3 mps 728 mmHg 93%
    03:00 +26°C° 0.3 mm 3 mps 727 mmHg 94%
    04:00 +26°C° 0 mm 3 mps 727 mmHg 94%
    05:00 +26°C° 0 mm 3 mps 728 mmHg 94%
    06:00 +26°C° 0 mm 2 mps 728 mmHg 95%
    07:00 +27°C° 0 mm 3 mps 728 mmHg 89%
    08:00 +28°C° 0 mm 3 mps 728 mmHg 83%
    09:00 +29°C° 0 mm 3 mps 729 mmHg 78%
    10:00 +31°C° 0 mm 3 mps 729 mmHg 69%
    11:00 +34°C° 0 mm 2 mps 728 mmHg 59%
    12:00 +36°C° 0 mm 2 mps 728 mmHg 50%
    13:00 +37°C° 0 mm 2 mps 728 mmHg 48%
    14:00 +37°C° 0 mm 2 mps 727 mmHg 46%
    15:00 +37°C° 0 mm 1 mps 726 mmHg 44%
    16:00 +36°C° 0.1 mm 2 mps 726 mmHg 50%
    17:00 +34°C° 0.1 mm 2 mps 726 mmHg 57%
    18:00 +32°C° 0.1 mm 2 mps 726 mmHg 63%
    19:00 +30°C° 0.7 mm 3 mps 727 mmHg 70%
    20:00 +29°C° 0.7 mm 3 mps 727 mmHg 77%
    21:00 +28°C° 0.7 mm 3 mps 727 mmHg 83%
    22:00 +27°C° 0.4 mm 3 mps 727 mmHg 86%
    23:00 +27°C° 0.4 mm 4 mps 728 mmHg 89%

    3 June, Wednesday

    Time Temperature Precipitation Wind Pressure Humidity
    00:00 +26°C° 0.4 mm 4 mps 728 mmHg 92%
    01:00 +26°C° 0 mm 3 mps 727 mmHg 92%
    02:00 +26°C° 0 mm 3 mps 727 mmHg 92%
    03:00 +26°C° 0 mm 2 mps 727 mmHg 93%
    04:00 +25°C° 0 mm 3 mps 727 mmHg 92%
    05:00 +25°C° 0 mm 4 mps 727 mmHg 92%
    06:00 +25°C° 0 mm 4 mps 727 mmHg 91%
    07:00 +26°C° 0 mm 4 mps 727 mmHg 87%
    08:00 +27°C° 0 mm 3 mps 727 mmHg 83%
    09:00 +28°C° 0 mm 3 mps 727 mmHg 79%
    10:00 +30°C° 0 mm 3 mps 727 mmHg 71%
    11:00 +33°C° 0 mm 3 mps 727 mmHg 62%
    12:00 +36°C° 0 mm 3 mps 727 mmHg 54%
    13:00 +36°C° 0 mm 3 mps 726 mmHg 52%
    14:00 +36°C° 0 mm 3 mps 726 mmHg 50%
    15:00 +37°C° 0 mm 2 mps 725 mmHg 48%
    16:00 +35°C° 0 mm 2 mps 725 mmHg 53%
    17:00 +34°C° 0 mm 2 mps 725 mmHg 58%
    18:00 +32°C° 0 mm 2 mps 726 mmHg 62%
    19:00 +31°C° 0.1 mm 2 mps 726 mmHg 66%
    20:00 +30°C° 0.1 mm 3 mps 727 mmHg 69%
    21:00 +29°C° 0.1 mm 3 mps 727 mmHg 73%
    22:00 +29°C° 0 mm 3 mps 727 mmHg 76%
    23:00 +28°C° 0 mm 3 mps 727 mmHg 80%

    4 June, Thursday

    Time Temperature Precipitation Wind Pressure Humidity
    00:00 +27°C° 0 mm 3 mps 727 mmHg 84%
    01:00 +27°C° 0.1 mm 3 mps 727 mmHg 86%
    02:00 +26°C° 0.1 mm 3 mps 727 mmHg 88%
    03:00 +26°C° 0.1 mm 3 mps 726 mmHg 90%
    04:00 +26°C° 0.4 mm 3 mps 727 mmHg 91%
    05:00 +25°C° 0.4 mm 3 mps 727 mmHg 92%
    06:00 +25°C° 0.4 mm 3 mps 727 mmHg 93%
    07:00 +26°C° 0 mm 4 mps 727 mmHg 88%
    08:00 +27°C° 0 mm 4 mps 728 mmHg 82%
    09:00 +29°C° 0 mm 4 mps 728 mmHg 77%
    10:00 +30°C° 0 mm 4 mps 728 mmHg 71%
    11:00 +33°C° 0 mm 3 mps 728 mmHg 65%
    12:00 +35°C° 0 mm 3 mps 727 mmHg 58%
    13:00 +35°C° 0 mm 3 mps 727 mmHg 54%
    14:00 +36°C° 0 mm 3 mps 726 mmHg 50%
    15:00 +37°C° 0 mm 2 mps 726 mmHg 46%
    16:00 +36°C° 0 mm 2 mps 726 mmHg 51%
    17:00 +34°C° 0 mm 2 mps 726 mmHg 56%
    18:00 +32°C° 0 mm 2 mps 726 mmHg 61%
    19:00 +31°C° 0 mm 2 mps 726 mmHg 64%
    20:00 +30°C° 0 mm 3 mps 726 mmHg 67%
    21:00 +29°C° 0 mm 3 mps 726 mmHg 70%
    22:00 +29°C° 0 mm 3 mps 727 mmHg 74%
    23:00 +28°C° 0 mm 3 mps 727 mmHg 78%

    5 June, Friday

    Time Temperature Precipitation Wind Pressure Humidity
    00:00 +27°C° 0 mm 3 mps 727 mmHg 81%
    01:00 +26°C° 0.7 mm 3 mps 727 mmHg 85%
    02:00 +26°C° 0.7 mm 3 mps 727 mmHg 90%
    03:00 +25°C° 0.7 mm 2 mps 727 mmHg 94%
    04:00 +25°C° 0.6 mm 3 mps 727 mmHg 94%
    05:00 +25°C° 0.6 mm 3 mps 727 mmHg 94%
    06:00 +25°C° 0.6 mm 3 mps 728 mmHg 95%
    07:00 +25°C° 0.1 mm 3 mps 728 mmHg 92%
    08:00 +26°C° 0.1 mm 3 mps 729 mmHg 89%
    09:00 +27°C° 0.1 mm 3 mps 729 mmHg 87%
    10:00 +28°C° 0 mm 3 mps 729 mmHg 81%
    11:00 +29°C° 0 mm 3 mps 728 mmHg 75%
    12:00 +30°C° 0 mm 3 mps 728 mmHg 69%
    13:00 +31°C° 0 mm 2 mps 728 mmHg 65%
    14:00 +32°C° 0 mm 2 mps 727 mmHg 60%
    15:00 +34°C° 0 mm 2 mps 727 mmHg 55%
    16:00 +32°C° 0 mm 2 mps 727 mmHg 61%
    17:00 +31°C° 0 mm 2 mps 727 mmHg 66%
    18:00 +30°C° 0 mm 3 mps 727 mmHg 71%
    19:00 +28°C° 0.1 mm 3 mps 728 mmHg 75%
    20:00 +27°C° 0.1 mm 4 mps 728 mmHg 79%
    21:00 +26°C° 0.1 mm 4 mps 729 mmHg 83%
    22:00 +26°C° 0 mm 3 mps 729 mmHg 86%
    23:00 +25°C° 0 mm 2 mps 729 mmHg 89%
    Show more